Location: Monteux
(44.0348°N, 4.9972°E)
Time: 22:50:50
(UTC+00:00)

Cosmos 2341 Rocket - Pass Details

Date: 27 April 2021
Orbit: 969 x 1003 km, 82.9° (Epoch: 13 May)

Event Time Altitude Azimuth Distance (km) Brightness Sun altitude
Rises 01:17:38 0° 340° (NNW) 3,726 7.6 -27.8°
Reaches altitude 10° 01:20:40 10° 326° (NNW) 2,777 6.7 -27.5°
Enters shadow 01:24:56 23° 284° (WNW) 1,999 5.5 -27.2°
